Rygge, Norway

2:04 AM CET on February 28, 2017 (GMT +0100)
Rygge

Weather History for ENRY - January, 2013

Change the Weather History Date:

Thursday, January 10, 2013

  Actual Average Record
Temperature  
Mean Temperature 27 °F -  
Max Temperature 30 °F 32 °F 48 °F (2005)
Min Temperature 24 °F 23 °F 1 °F (1997)
Degree Days  
Heating Degree Days 38    
Moisture  
Dew Point 23 °F    
Average Humidity 83    
Maximum Humidity 93    
Minimum Humidity 69    
Precipitation  
Precipitation 0.00 in - - ()
Sea Level Pressure  
Sea Level Pressure 29.96 in    
Wind  
Wind Speed 9 mph ()    
Max Wind Speed 15 mph    
Max Gust Speed -    
Visibility 6.5 miles    
Events      
Averages and records for this station are not official NWS values.
T = Trace of Precipitation, MM = Missing Value Source: Averaged Metar Reports

Daily Weather History Graph

Daily Weather History Graph

Search for Another Location

Airport or City:

Trip Planner

Search our weather history database for the weather conditions in past years. The results will help you decide how hot, cold, wet, or windy it might be!

Date:

Astronomy

Jan. 10, 2013 Rise Set
Actual Time 9:06 AM CET 3:43 PM CET
Civil Twilight 8:13 AM CET 4:35 PM CET
Nautical Twilight 7:19 AM CET 5:29 PM CET
Astronomical Twilight 6:30 AM CET 6:19 PM CET
Moon 7:30 AM CET (1/10) 2:33 PM CET (1/10)
Length of Visible Light 8h 22m
Length of Day
6h 36m
Waning Crescent, 3% of the Moon is Illuminated
Jan 10
Waning Crescent
Jan 11
New
Jan 19
First Quarter
Jan 27
Full
Feb 3
Last Quarter

Hourly Weather History & Observations

Time (CET) Temp. Windchill Dew Point Humidity Pressure Visibility Wind Dir Wind Speed Gust Speed Precip Events Conditions
12:20 AM 28.4 °F 18.5 °F 24.8 °F 86% 29.92 in 6.2 mi North 11.5 mph - N/A   Unknown
12:50 AM 28.4 °F 19.7 °F 24.8 °F 86% 29.92 in 6.2 mi North 9.2 mph - N/A   Overcast
1:00 AM 28 °F - 26 °F 87% 29.95 in 31 mi North 8.9 mph - -   Clear
1:20 AM 26.6 °F 16.8 °F 24.8 °F 93% 29.92 in 6.2 mi North 10.4 mph - N/A   Scattered Clouds
1:50 AM 26.6 °F 16.2 °F 23.0 °F 86% 29.92 in 6.2 mi North 11.5 mph - N/A   Unknown
2:20 AM 26.6 °F 18.2 °F 23.0 °F 86% 29.92 in 6.2 mi North 8.1 mph - N/A   Unknown
2:50 AM 26.6 °F 17.5 °F 23.0 °F 86% 29.92 in 6.2 mi North 9.2 mph - N/A   Unknown
3:20 AM 26.6 °F 16.8 °F 23.0 °F 86% 29.92 in 6.2 mi North 10.4 mph - N/A   Unknown
3:50 AM 26.6 °F 15.7 °F 23.0 °F 86% 29.92 in 6.2 mi NNW 12.7 mph - N/A   Unknown
4:20 AM 26.6 °F 15.7 °F 23.0 °F 86% 29.92 in 6.2 mi North 12.7 mph - N/A   Unknown
4:50 AM 26.6 °F 15.2 °F 23.0 °F 86% 29.92 in 6.2 mi North 13.8 mph - N/A   Unknown
5:20 AM 26.6 °F 17.5 °F 23.0 °F 86% 29.92 in 6.2 mi North 9.2 mph - N/A   Unknown
5:50 AM 24.8 °F 15.3 °F 23.0 °F 93% 29.92 in 6.2 mi North 9.2 mph - N/A   Unknown
6:20 AM 24.8 °F 15.3 °F 23.0 °F 93% 29.92 in - North 9.2 mph - N/A   Clear
6:50 AM 24.8 °F 15.3 °F 21.2 °F 86% 29.92 in - North 9.2 mph - N/A   Clear
7:00 AM 25 °F - 22 °F 86% 29.95 in 28 mi North 11.2 mph - -   Partly Cloudy
7:20 AM 24.8 °F 14.6 °F 21.2 °F 86% 29.92 in - North 10.4 mph - N/A   Clear
7:50 AM 24.8 °F 15.3 °F 21.2 °F 86% 29.92 in - NNW 9.2 mph - N/A   Clear
8:20 AM 24.8 °F 16.1 °F 21.2 °F 86% 29.95 in - North 8.1 mph - N/A   Clear
8:50 AM 26.6 °F 16.2 °F 21.2 °F 80% 29.92 in - North 11.5 mph - N/A   Clear
9:20 AM 26.6 °F 19.1 °F 21.2 °F 80% 29.95 in - North 6.9 mph - N/A   Clear
9:50 AM 26.6 °F 18.2 °F 21.2 °F 80% 29.95 in - NNW 8.1 mph - N/A   Clear
10:20 AM 24.8 °F 16.9 °F 21.2 °F 86% 29.95 in - NNE 6.9 mph - N/A   Clear
10:50 AM 24.8 °F 16.1 °F 21.2 °F 86% 29.95 in 6.2 mi North 8.1 mph - N/A   Scattered Clouds
11:20 AM 24.8 °F 16.1 °F 23.0 °F 93% 29.95 in 6.2 mi North 8.1 mph - N/A   Scattered Clouds
11:50 AM 26.6 °F 18.2 °F 23.0 °F 86% 29.95 in 6.2 mi North 8.1 mph - N/A   Partly Cloudy
12:20 PM 28.4 °F 19.1 °F 23.0 °F 80% 29.95 in 6.2 mi North 10.4 mph - N/A   Mostly Cloudy
1:00 PM 29 °F - 25 °F 80% 29.98 in 28 mi North 8.9 mph - -   Partly Cloudy
1:20 PM 30.2 °F 21.9 °F 24.8 °F 80% 29.95 in 6.2 mi North 9.2 mph - N/A   Mostly Cloudy
1:50 PM 30.2 °F 22.6 °F 24.8 °F 80% 29.95 in 6.2 mi NNE 8.1 mph - N/A   Mostly Cloudy
2:20 PM 30.2 °F 21.3 °F 24.8 °F 80% 29.95 in 6.2 mi North 10.4 mph - N/A   Scattered Clouds
2:50 PM 30.2 °F 22.6 °F 24.8 °F 80% 29.95 in 6.2 mi North 8.1 mph - N/A   Scattered Clouds
3:20 PM 30.2 °F 22.6 °F 24.8 °F 80% 29.98 in 6.2 mi North 8.1 mph - N/A   Scattered Clouds
3:50 PM 30.2 °F 22.6 °F 24.8 °F 80% 29.98 in 6.2 mi North 8.1 mph - N/A   Scattered Clouds
4:20 PM 30.2 °F 21.3 °F 26.6 °F 86% 29.98 in 6.2 mi NNE 10.4 mph - N/A   Scattered Clouds
4:50 PM 30.2 °F 21.9 °F 24.8 °F 80% 29.98 in 6.2 mi North 9.2 mph - N/A   Mostly Cloudy
5:20 PM 30.2 °F 20.2 °F 24.8 °F 80% 29.98 in 6.2 mi North 12.7 mph - N/A   Mostly Cloudy
5:50 PM 30.2 °F 23.4 °F 24.8 °F 80% 29.98 in 6.2 mi North 6.9 mph - N/A   Mostly Cloudy
6:20 PM 30.2 °F 23.4 °F 24.8 °F 80% 29.98 in 6.2 mi NNE 6.9 mph - N/A   Mostly Cloudy
6:50 PM 30.2 °F 23.4 °F 24.8 °F 80% 29.98 in 6.2 mi NNE 6.9 mph - N/A   Mostly Cloudy
7:00 PM 30 °F - 26 °F 78% 30.01 in 19 mi NNE 6.7 mph - -   Partly Cloudy
7:20 PM 30.2 °F 21.9 °F 24.8 °F 80% 29.98 in 6.2 mi NNE 9.2 mph - N/A   Scattered Clouds
7:50 PM 28.4 °F 19.7 °F 24.8 °F 86% 30.01 in 6.2 mi North 9.2 mph - N/A   Scattered Clouds
8:50 PM 28.4 °F 17.5 °F 23.0 °F 80% 30.01 in 6.2 mi NNE 13.8 mph - N/A   Mostly Cloudy
9:20 PM 28.4 °F 18.0 °F 23.0 °F 80% 30.01 in 6.2 mi North 12.7 mph - N/A   Mostly Cloudy
9:50 PM 28.4 °F 18.0 °F 21.2 °F 74% 30.04 in 6.2 mi North 12.7 mph - N/A   Mostly Cloudy
10:20 PM 28.4 °F 19.1 °F 21.2 °F 74% 30.04 in 6.2 mi North 10.4 mph - N/A   Mostly Cloudy
10:50 PM 28.4 °F 20.4 °F 21.2 °F 74% 30.04 in 6.2 mi North 8.1 mph - N/A   Mostly Cloudy
11:20 PM 28.4 °F 18.0 °F 21.2 °F 74% 30.04 in 6.2 mi North 12.7 mph - N/A   Overcast
11:50 PM 28.4 °F 17.0 °F 19.4 °F 69% 30.04 in 6.2 mi NNE 15.0 mph - N/A   Overcast